Total_Precipitation_Accumulation
3.71 3.83 3.52 3.42 3.55 3.63 3.87 4.22 4.32 3.96 3.76 3.50 2.93 2.56 2.58 2.85 3.24 2.83 2.68 2.63 2.40 2.27 2.12 2.03 2.05 2.12 2.25 2.44 2.69 2.92 3.05 3.12 3.17 3.14 3.24 3.47 3.64 3.85
3.49 3.51 3.42 3.28 3.41 3.38 3.47 3.78 4.06 4.10 3.80 3.39 3.01 2.58 2.67 2.57 2.91 2.77 2.78 2.76 2.42 2.18 1.96 1.86 1.86 1.89 1.98 2.06 2.13 2.31 2.40 2.44 2.55 2.66 2.68 2.74 2.79 2.95
2.94 2.97 3.02 3.28 3.42 3.32 3.40 3.46 3.75 4.08 3.94 3.63 3.28 3.00 2.93 2.90 2.75 2.68 2.54 2.41 2.20 2.06 1.82 1.74 1.72 1.74 1.78 1.84 1.94 2.10 2.23 2.32 2.35 2.43 2.53 2.59 2.61 2.66
2.77 2.95 2.78 3.05 3.25 3.15 3.27 3.28 3.48 3.88 4.00 4.09 3.98 3.63 3.36 3.20 3.13 2.89 2.40 2.16 2.20 2.19 1.97 1.81 1.71 1.67 1.65 1.67 1.77 1.94 2.08 2.21 2.23 2.23 2.27 2.34 2.47 2.61
2.77 2.79 2.64 2.84 2.91 3.01 3.09 3.13 3.34 3.62 3.99 3.89 3.86 3.79 3.60 3.30 3.41 3.04 2.69 2.64 2.15 2.11 2.06 1.88 1.77 1.69 1.65 1.66 1.71 1.78 1.87 2.02 2.07 2.16 2.25 2.30 2.37 2.47
2.61 2.54 2.42 2.45 2.56 2.84 2.91 3.06 3.31 3.56 3.79 3.71 3.72 3.82 3.89 3.87 3.85 3.48 3.27 3.02 2.60 2.13 2.20 2.03 1.96 1.81 1.66 1.57 1.59 1.66 1.80 1.96 2.02 2.09 2.18 2.24 2.32 2.41
2.39 2.25 2.08 2.16 2.33 2.45 2.33 2.74 3.18 3.33 3.39 3.44 3.50 3.71 3.85 4.12 3.87 3.69 3.58 3.53 3.19 2.68 2.64 2.25 2.09 1.86 1.68 1.59 1.58 1.55 1.59 1.74 1.83 1.93 2.06 2.13 2.24 2.36
2.29 2.27 2.15 2.05 2.02 2.07 2.04 2.25 2.65 2.84 3.04 3.33 3.43 3.61 3.67 3.67 3.83 3.81 3.78 3.66 3.32 2.94 2.95 2.87 2.70 2.54 2.22 1.81 1.70 1.53 1.43 1.53 1.71 1.83 1.95 2.07 2.17 2.27
2.26 2.31 2.03 1.86 1.96 1.84 1.94 2.03 2.07 2.16 2.38 2.82 3.09 3.16 3.25 3.28 3.59 3.62 3.63 3.50 3.38 3.22 3.27 3.22 3.11 2.87 2.40 2.18 2.10 1.79 1.61 1.55 1.63 1.74 1.78 1.90 2.05 2.17
1.95 2.01 2.06 2.04 1.96 2.04 2.04 1.99 1.84 1.86 1.99 2.01 2.17 2.42 2.72 3.02 3.23 3.39 3.71 3.68 3.59 3.47 3.39 3.41 3.24 3.09 2.67 2.40 2.31 2.03 1.88 1.75 1.73 1.76 1.78 1.81 1.86 1.95
1.91 1.96 2.06 2.10 2.18 2.12 2.08 2.10 2.04 1.97 1.90 1.89 1.83 1.93 2.13 2.33 2.56 2.86 3.22 3.57 3.69 3.63 3.43 3.48 3.39 3.41 3.34 2.92 2.52 2.36 2.08 1.92 1.84 1.80 1.78 1.79 1.84 1.92
2.25 2.21 2.11 1.95 1.98 1.94 1.91 2.01 1.98 1.94 1.88 1.85 1.77 1.71 1.70 1.87 2.12 2.34 2.68 3.11 3.35 3.48 3.40 3.53 3.66 4.03 4.18 3.57 2.96 2.58 2.35 2.26 2.09 1.91 1.85 1.88 2.01 1.92
2.20 2.11 1.99 1.83 1.66 1.62 1.59 1.68 1.79 1.80 1.86 1.94 1.99 1.95 1.95 1.96 2.01 2.12 2.46 2.79 2.96 2.80 2.82 3.35 3.55 3.86 4.17 3.99 3.69 3.33 2.98 2.69 2.44 2.24 2.16 2.19 2.28 2.18
2.24 2.20 2.07 1.90 1.68 1.58 1.42 1.46 1.58 1.57 1.66 1.89 1.97 1.96 1.97 1.98 2.07 2.20 2.43 2.64 2.82 2.80 2.86 3.18 3.38 3.60 3.70 3.60 3.53 3.55 3.53 3.35 3.09 2.86 2.58 2.61 2.54 2.59
2.05 2.25 2.13 1.81 1.57 1.47 1.44 1.36 1.29 1.31 1.50 1.65 1.73 1.81 1.89 2.02 2.19 2.39 2.62 2.78 2.82 2.75 2.69 2.91 3.20 3.48 3.63 3.43 3.23 3.21 3.29 3.26 3.13 3.08 3.01 2.85 2.70 2.64
1.84 1.87 1.84 1.70 1.50 1.48 1.52 1.39 1.28 1.36 1.46 1.49 1.59 1.74 1.87 1.99 2.15 2.29 2.53 2.78 2.89 2.71 2.72 2.90 3.15 3.43 3.44 3.33 3.21 3.05 3.01 3.06 3.09 3.15 3.20 3.09 2.93 2.81
1.81 1.81 1.76 1.76 1.61 1.55 1.63 1.66 1.66 1.71 1.68 1.62 1.68 1.72 1.79 1.85 1.94 2.11 2.36 2.56 2.70 2.66 2.64 2.75 2.90 3.12 3.15 3.13 3.08 2.86 2.80 2.73 2.85 3.18 3.44 3.33 3.02 2.84
1.81 1.81 1.92 1.92 1.87 1.87 1.90 1.90 1.89 1.87 1.88 1.93 1.94 1.90 1.92 1.95 1.96 2.04 2.20 2.37 2.47 2.52 2.55 2.55 2.68 2.88 2.94 2.87 2.64 2.50 2.45 2.42 2.46 2.76 3.04 3.17 3.02 2.83
1.85 1.93 2.08 2.10 2.08 2.07 2.01 2.00 2.07 2.04 2.06 2.06 2.06 2.07 2.10 2.12 2.13 2.18 2.29 2.40 2.39 2.35 2.42 2.56 2.62 2.72 2.70 2.57 2.41 2.15 2.21 2.32 2.41 2.44 2.47 2.56 2.61 2.54
1.81 2.03 2.24 2.26 2.26 2.23 2.16 2.09 2.12 2.12 2.09 2.07 2.08 2.09 2.15 2.23 2.26 2.29 2.32 2.39 2.38 2.33 2.36 2.41 2.49 2.52 2.56 2.51 2.40 2.23 2.02 2.14 2.29 2.31 2.24 2.25 2.19 2.28
1.97 2.11 2.17 2.21 2.23 2.19 2.12 2.08 2.12 2.12 2.11 2.15 2.18 2.19 2.18 2.29 2.28 2.26 2.30 2.39 2.32 2.22 2.21 2.23 2.32 2.43 2.47 2.57 2.43 2.17 2.06 2.06 2.14 2.17 2.20 2.28 2.19 2.09
1.99 2.01 2.01 2.00 2.03 2.09 2.15 2.22 2.28 2.24 2.24 2.21 2.11 2.08 2.10 2.18 2.23 2.29 2.31 2.29 2.23 2.16 2.09 2.08 2.15 2.25 2.34 2.44 2.35 2.18 2.14 2.14 2.16 2.17 2.15 2.11 2.04 1.96
1.96 1.98 1.96 1.92 1.89 1.96 2.06 2.12 2.18 2.23 2.19 2.10 2.07 2.08 2.08 2.15 2.18 2.18 2.15 2.08 2.06 2.08 2.13 2.12 2.13 2.18 2.21 2.30 2.36 2.30 2.19 2.22 2.28 2.22 2.00 1.87 1.71 1.56